星链-1717 (STARLINK-1717 )

导读 | 星芒AI

STARLINK-1717 是 SpaceX Starlink 卫星互联网项目中的一颗低轨卫星,属于第 5 批次部署的星链卫星之一。该卫星于 2020 年 11 月 24 日由猎鹰 9 号火箭发射升空,旨在为全球用户提供高速、低延迟的宽带互联网服务。STARLINK-1717 运行在约 550 公里的近地轨道,采用先进通信技术,支持星间链路,提高网络覆盖与稳定性。它是 SpaceX 构建全球卫星互联网网络的重要组成部分。

基本信息
目录编号:
46673
目录名称:
STARLINK-1717
国际标识:
2020-073D
轨道中心:
EARTH
卫星名称:
星链-1717
卫星全名:
星链-1717 (STARLINK-1717 )
卫星状态:
已陨落 最后检测时间 2024-08-24
发射日期:
2020-10-18 UTC
国别 :
美国 (US)
星等 :
--
轨道信息
数据来源 国际轨道数据
星历时间: 2024-08-24T02:44:09+0800
轨道信息已过期435天
半长轴: 6580.105km
偏心率: 0.0001872
轨道倾角: 53.032°
近地点辐角 97.877°
升交点赤经 197.799°
平近点角 2.009°
近地点: 200.738km
远地点: 203.202km
周期: 88.534分钟
每日圈数: 16.264982
详细信息
固有亮度:
5
最大亮度:
2.5
卫星平台:
Starlink V1.0
覆盖范围:
全球
运营商:
太空探索技术公司
运营商所在国:
美国
制造商(研发单位):
太空探索技术公司
制造商所在国:
美国
使用方式:
暂无
卫星简介
星链(Starlink)计划是由太空探索技术公司(SpaceX)提出的一个巨型低轨卫星互联网星座项目,计划在2019年至2024年间在太空搭建由约1.2万颗卫星组成的“星链”网络,其中1584颗将部署在地球上空550千米处的近地轨道,并从2020年开始工作。该卫星仍在工作。